< < Back
Terminal Aerodrome Forecast


Current Version              Previous Versions:   1  2  3  4  5  6  7  8  9  

Terminal Aerodrome Forecast

269
FTUS42 KFFC 292333
TAFFTY
TAF
KFTY 292333Z 3000/3024 33008KT P6SM FEW060 BKN150
      TEMPO 3001/3005 07008KT
     FM300600 32004KT P6SM SKC
     FM301600 31008KT P6SM FEW040
     FM302000 32011KT P6SM SCT250=

Latest METAR

904
SAUS70 KWBC 310000 RRF
MTRFTY
METAR KFTY 302353Z 32005KT 10SM CLR 29/16 A2992 RMK AO2 SLP123 T02940161
10328 20294 55006


USA.gov is the U.S. government's official web portal to all federal, state and local government web resources and services.